Date String (YYYY-MM-DD hh:mm:ss) UTC,Instrument flags,Ambient pressure (hPa),Sample flow (lpm),Bypass flow (lpm),Sample temperature (°C),Ambient temperature (°C),ASC tube jacket temperature (°C),LED temperature (°C),Box temperature (°C),Sample RH (%),Span deviation,Mass concentration (μg/m³),Mass concentration (μg/m³),Mass concentration (μg/m³)
DateTimeUTC,F1_M11,P_M11,Q1_M11,Q2_M11,T1_M11,T2_M11,T3_M11,T4_M11,T5_M11,U1_M11,ZSPAN_M11,X0_M11,X2_M11,X1_M11
2021-12-24 13:00:00,,0809.5,5.00,0.00,24.5,23.9,00.0,33.5,26.3,20.5,0000.0,0000.44,0000.17,0000.05
2021-12-24 13:01:00,,0809.6,5.01,0.00,24.5,23.9,00.0,33.5,26.3,20.5,0000.0,0000.46,0000.18,0000.04
2021-12-24 13:02:00,,0809.8,5.00,0.00,24.5,23.9,00.0,33.5,26.3,20.5,0000.0,0000.46,0000.18,0000.05
2021-12-24 13:03:00,,0809.7,4.99,0.00,24.5,23.8,00.0,33.5,26.3,20.5,0000.0,0000.47,0000.19,0000.05
2021-12-24 13:04:00,,0809.7,5.01,0.00,24.5,23.8,00.0,33.5,26.3,20.5,0000.0,0000.52,0000.21,0000.05
2021-12-24 13:05:00,,0809.7,5.00,0.00,24.5,23.8,00.0,33.5,26.3,20.5,0000.0,0000.53,0000.22,0000.05
2021-12-24 13:06:00,,0809.7,4.99,0.00,24.5,23.8,00.0,33.5,26.3,20.4,0000.0,0000.53,0000.21,0000.05
2021-12-24 13:07:00,,0809.5,5.01,0.00,24.5,23.8,00.0,33.5,26.3,20.3,0000.0,0000.46,0000.20,0000.05
2021-12-24 13:08:00,,0809.5,5.00,0.00,24.5,23.9,00.0,33.5,26.3,20.3,0000.0,0000.61,0000.23,0000.05
2021-12-24 13:09:00,,0809.6,5.00,0.00,24.6,23.9,00.0,33.5,26.3,20.3,0000.0,0000.65,0000.25,0000.05
2021-12-24 13:10:00,,0809.6,5.00,0.00,24.6,23.9,00.0,33.5,26.3,20.3,0000.0,0000.67,0000.26,0000.05
2021-12-24 13:11:00,,0809.8,5.00,0.00,24.6,23.9,00.0,33.5,26.4,20.3,0000.0,0000.62,0000.25,0000.06
2021-12-24 13:12:00,,0809.7,5.00,0.00,24.6,23.9,00.0,33.5,26.4,20.4,0000.0,0000.71,0000.24,0000.06
2021-12-24 13:13:00,,0809.9,4.99,0.00,24.6,23.9,00.0,33.5,26.4,20.3,0000.0,0000.73,0000.25,0000.06
2021-12-24 13:14:00,,0810.0,5.00,0.00,24.6,23.9,00.0,33.5,26.3,20.4,0000.0,0000.81,0000.28,0000.07
2021-12-24 13:15:00,,0809.9,5.00,0.00,24.6,23.9,00.0,33.5,26.3,20.4,0000.0,0000.85,0000.30,0000.08
2021-12-24 13:16:00,,0809.9,4.98,0.00,24.5,23.8,00.0,33.5,26.3,20.4,0000.0,0000.84,0000.30,0000.08
2021-12-24 13:17:00,,0809.9,5.01,0.00,24.5,23.8,00.0,33.5,26.2,20.4,0000.0,0000.86,0000.31,0000.08
2021-12-24 13:18:00,,0809.9,5.00,0.00,24.5,23.8,00.0,33.5,26.2,20.4,0000.0,0002.12,0000.32,0000.08
2021-12-24 13:19:00,,0809.9,5.00,0.00,24.5,23.7,00.0,33.5,26.2,20.4,0000.0,0002.27,0000.32,0000.08
2021-12-24 13:20:00,,0809.9,5.00,0.00,24.5,23.7,00.0,33.5,26.2,20.4,0000.0,0002.28,0000.30,0000.09
2021-12-24 13:21:00,,0809.9,5.00,0.00,24.4,23.7,00.0,33.5,26.1,20.5,0000.0,0002.32,0000.30,0000.09
2021-12-24 13:22:00,,0809.9,4.99,0.00,24.4,23.7,00.0,33.5,26.1,20.5,0000.0,0002.31,0000.28,0000.08
2021-12-24 13:23:00,,0810.0,5.00,0.00,24.4,23.6,00.0,33.5,26.1,20.5,0000.0,0003.31,0000.30,0000.08
2021-12-24 13:24:00,,0810.0,5.00,0.00,24.4,23.6,00.0,33.5,26.1,20.5,0000.0,0004.20,0000.30,0000.07
2021-12-24 13:25:00,,0809.9,5.01,0.00,24.4,23.6,00.0,33.5,26.1,20.5,0000.0,0004.11,0000.27,0000.07
2021-12-24 13:26:00,,0809.9,5.00,0.00,24.4,23.6,00.0,33.4,26.1,20.5,0000.0,0005.00,0000.24,0000.06
2021-12-24 13:27:00,,0810.0,5.00,0.00,24.4,23.6,00.0,33.4,26.1,20.5,0000.0,0005.26,0000.23,0000.06
2021-12-24 13:28:00,,0810.0,4.98,0.00,24.3,23.6,00.0,33.4,26.0,20.5,0000.0,0005.40,0000.27,0000.07
2021-12-24 13:29:00,,0810.0,5.00,0.00,24.3,23.5,00.0,33.4,26.0,20.5,0000.0,0006.83,0000.29,0000.07
2021-12-24 13:30:00,,0809.9,5.01,0.00,24.2,23.5,00.0,33.4,25.9,20.5,0000.0,0006.80,0000.37,0000.08
2021-12-24 13:31:00,,0809.9,4.99,0.00,24.2,23.4,00.0,33.4,25.9,20.5,0000.0,0006.84,0000.40,0000.08
2021-12-24 13:32:00,,0809.9,4.98,0.00,24.2,23.4,00.0,33.3,25.8,20.5,0000.0,0006.81,0000.39,0000.09
2021-12-24 13:33:00,,0809.9,5.01,0.00,24.2,23.3,00.0,33.3,25.8,20.5,0000.0,0006.85,0000.41,0000.09
2021-12-24 13:34:00,,0809.9,4.99,0.00,24.1,23.3,00.0,33.3,25.7,20.5,0000.0,0006.54,0000.41,0000.10
2021-12-24 13:35:00,,0809.9,5.02,0.00,24.1,23.2,00.0,33.3,25.7,20.5,0000.0,0005.35,0000.44,0000.11
2021-12-24 13:36:00,,0809.9,4.99,0.00,24.1,23.2,00.0,33.3,25.6,20.5,0000.0,0005.57,0000.48,0000.11
2021-12-24 13:37:00,,0809.9,5.01,0.00,24.0,23.2,00.0,33.2,25.6,20.6,0000.0,0005.05,0000.55,0000.11
2021-12-24 13:38:00,,0809.9,4.99,0.00,24.0,23.1,00.0,33.2,25.5,20.6,0000.0,0004.79,0000.59,0000.11
2021-12-24 13:39:00,,0809.9,5.01,0.00,24.0,23.1,00.0,33.2,25.5,20.7,0000.0,0004.77,0000.61,0000.10
2021-12-24 13:40:00,,0810.0,5.00,0.00,23.9,23.1,00.0,33.2,25.5,20.7,0000.0,0002.60,0000.56,0000.10
2021-12-24 13:41:00,,0809.9,4.99,0.00,23.9,23.0,00.0,33.1,25.5,20.6,0000.0,0002.78,0000.58,0000.10
2021-12-24 13:42:00,,0809.9,5.00,0.00,23.9,23.0,00.0,33.1,25.5,20.6,0000.0,0003.58,0000.62,0000.10
2021-12-24 13:43:00,,0809.9,4.99,0.00,23.9,22.9,00.0,33.1,25.5,20.6,0000.0,0003.65,0000.63,0000.10
2021-12-24 13:44:00,,0810.0,5.00,0.00,23.8,22.9,00.0,33.1,25.4,20.6,0000.0,0004.13,0000.66,0000.11
2021-12-24 13:45:00,,0810.2,5.00,0.00,23.8,22.9,00.0,33.0,25.3,20.6,0000.0,0004.77,0000.69,0000.11
2021-12-24 13:46:00,,0810.2,4.99,0.00,23.7,22.8,00.0,33.0,25.3,20.6,0000.0,0005.07,0000.69,0000.11
2021-12-24 13:47:00,,0810.2,5.02,0.00,23.7,22.8,00.0,33.0,25.2,20.6,0000.0,0004.92,0000.69,0000.12
2021-12-24 13:48:00,,0810.2,4.99,0.00,23.7,22.7,00.0,32.9,25.2,20.6,0000.0,0004.72,0000.66,0000.13
2021-12-24 13:49:00,,0810.3,5.01,0.00,23.6,22.7,00.0,32.9,25.2,20.7,0000.0,0004.60,0000.63,0000.13
2021-12-24 13:50:00,,0810.2,4.99,0.00,23.6,22.7,00.0,32.9,25.1,20.7,0000.0,0004.81,0000.67,0000.14
2021-12-24 13:51:00,,0810.2,5.00,0.00,23.6,22.7,00.0,32.9,25.1,20.8,0000.0,0004.83,0000.70,0000.15
2021-12-24 13:52:00,,0810.2,5.00,0.00,23.5,22.6,00.0,32.8,25.1,20.8,0000.0,0004.24,0000.66,0000.15
2021-12-24 13:53:00,,0810.2,4.98,0.00,23.5,22.6,00.0,32.8,25.0,20.8,0000.0,0003.60,0000.62,0000.15
2021-12-24 13:54:00,,0810.2,5.01,0.00,23.5,22.6,00.0,32.8,25.0,20.9,0000.0,0004.17,0000.68,0000.16
2021-12-24 13:55:00,,0810.2,5.00,0.00,23.4,22.6,00.0,32.7,25.0,20.9,0000.0,0003.95,0000.71,0000.16
2021-12-24 13:56:00,,0810.2,5.00,0.00,23.4,22.5,00.0,32.7,24.9,21.0,0000.0,0003.37,0000.73,0000.17
2021-12-24 13:57:00,,0810.2,5.00,0.00,23.4,22.5,00.0,32.7,24.9,21.0,0000.0,0002.97,0000.78,0000.17
2021-12-24 13:58:00,,0810.3,5.01,0.00,23.3,22.4,00.0,32.6,24.9,21.1,0000.0,0003.26,0000.86,0000.17
2021-12-24 13:59:00,,0810.3,4.98,0.00,23.3,22.4,00.0,32.6,24.9,21.1,0000.0,0003.52,0000.94,0000.17
